| time (UTC) | temp F | wind direction | speed MPH | gust MPH | rain 1hr in | rain 24hr in | rain mn in | humidity % | barometer mb |
| 20260506005106 | 41 | 328 | 0.0 | 2.0 | 0.00 | 0.00 | 0.00 | 96 | 1016.7 |
| 20260506004906 | 41 | 1 | 1.0 | 3.0 | 0.00 | 0.00 | 0.00 | 96 | 1016.6 |
| 20260506004706 | 41 | 20 | 2.0 | 3.0 | 0.00 | 0.00 | 0.00 | 96 | 1016.6 |
| 20260506004505 | 41 | 15 | 0.0 | 3.0 | 0.00 | 0.00 | 0.00 | 96 | 1016.6 |
| 20260506004306 | 41 | 43 | 1.0 | 3.0 | 0.00 | 0.00 | 0.00 | 96 | 1016.7 |
| 20260506004106 | 41 | 70 | 1.0 | 3.0 | 0.00 | 0.00 | 0.00 | 95 | 1016.5 |
| 20260506003905 | 41 | 30 | 2.0 | 2.0 | 0.00 | 0.00 | 0.00 | 95 | 1016.4 |
| 20260506003706 | 41 | 20 | 0.0 | 2.0 | 0.00 | 0.00 | 0.00 | 95 | 1016.7 |
| 20260506003506 | 41 | 43 | 2.0 | 2.0 | 0.00 | 0.00 | 0.00 | 95 | 1016.7 |
| 20260506003305 | 42 | 71 | 1.0 | 2.0 | 0.00 | 0.00 | 0.00 | 95 | 1016.3 |
| 20260506003105 | 42 | 68 | 1.0 | 2.0 | 0.00 | 0.00 | 0.00 | 95 | 1016.6 |
| 20260506002905 | 42 | 1 | 1.0 | 2.0 | 0.00 | 0.00 | 0.00 | 95 | 1016.3 |
| 20260506002705 | 42 | 351 | 1.0 | 2.0 | 0.00 | 0.00 | 0.00 | 95 | 1016.5 |
| 20260506002505 | 42 | 13 | 2.0 | 2.0 | 0.00 | 0.00 | 0.00 | 95 | 1016.5 |
| 20260506002306 | 42 | 8 | 1.0 | 2.0 | 0.00 | 0.00 | 0.00 | 95 | 1016.5 |
| 20260506002105 | 42 | 5 | 0.0 | 2.0 | 0.00 | 0.00 | 0.00 | 95 | 1016.4 |
| 20260506001905 | 42 | 5 | 1.0 | 2.0 | 0.00 | 0.00 | 0.00 | 95 | 1016.7 |
| 20260506001706 | 42 | 4 | 2.0 | 2.0 | 0.00 | 0.00 | 0.00 | 95 | 1016.6 |
| 20260506001505 | 42 | 16 | 0.0 | 2.0 | 0.00 | 0.00 | 0.00 | 95 | 1016.5 |
| 20260506001306 | 42 | 25 | 0.0 | 2.0 | 0.00 | 0.00 | 0.00 | 95 | 1016.7 |
| 20260506001105 | 42 | 3 | 0.0 | 2.0 | 0.00 | 0.00 | 0.00 | 95 | 1016.6 |
| 20260506000906 | 42 | 5 | 1.0 | 2.0 | 0.00 | 0.00 | 0.00 | 95 | 1016.6 |
| 20260506000705 | 42 | 337 | 1.0 | 2.0 | 0.00 | 0.00 | 0.00 | 95 | 1016.4 |
| 20260506000505 | 42 | 11 | 1.0 | 2.0 | 0.00 | 0.00 | 0.00 | 95 | 1016.7 |
| 20260506000306 | 42 | 356 | 1.0 | 3.0 | 0.00 | 0.00 | 0.00 | 95 | 1016.6 |
| 20260506000106 | 42 | 355 | 0.0 | 3.0 | 0.00 | 0.00 | 0.00 | 95 | 1016.6 |
| 20260505235905 | 42 | 12 | 0.0 | 3.0 | 0.00 | 0.00 | 0.00 | 95 | 1016.7 |
| 20260505235705 | 42 | 1 | 1.0 | 3.0 | 0.00 | 0.00 | 0.00 | 95 | 1016.6 |
| 20260505235505 | 42 | 7 | 0.0 | 3.0 | 0.00 | 0.00 | 0.00 | 95 | 1016.8 |
| 20260505235306 | 42 | 11 | 0.0 | 3.0 | 0.00 | 0.00 | 0.00 | 95 | 1016.8 |
| 20260505235106 | 42 | 4 | 0.0 | 3.0 | 0.00 | 0.00 | 0.00 | 95 | 1016.5 |
| 20260505234906 | 42 | 327 | 2.0 | 3.0 | 0.00 | 0.00 | 0.00 | 95 | 1016.7 |
| 20260505234706 | 42 | 341 | 2.0 | 2.0 | 0.00 | 0.00 | 0.00 | 94 | 1016.8 |
| 20260505234506 | 42 | 7 | 0.0 | 2.0 | 0.00 | 0.00 | 0.00 | 94 | 1016.8 |
| 20260505234306 | 43 | 11 | 1.0 | 2.0 | 0.00 | 0.00 | 0.00 | 94 | 1016.7 |
| 20260505234106 | 43 | 346 | 0.0 | 2.0 | 0.00 | 0.00 | 0.00 | 94 | 1016.7 |
| 20260505233906 | 43 | 94 | 1.0 | 2.0 | 0.00 | 0.00 | 0.00 | 94 | 1016.7 |
| 20260505233706 | 43 | 26 | 0.0 | 2.0 | 0.00 | 0.00 | 0.00 | 94 | 1016.7 |
| 20260505233506 | 43 | 22 | 1.0 | 2.0 | 0.00 | 0.00 | 0.00 | 94 | 1016.6 |
| 20260505233306 | 43 | 1 | 2.0 | 2.0 | 0.00 | 0.00 | 0.00 | 94 | 1016.6 |
| 20260505233210 | 43 | 2 | 0.0 | 2.0 | 0.00 | 0.00 | 0.00 | 94 | 1016.7 |
| 20260505232905 | 43 | 3 | 2.0 | 2.0 | 0.00 | 0.00 | 0.00 | 94 | 1016.8 |
| 20260505232705 | 43 | 100 | 1.0 | 2.0 | 0.00 | 0.00 | 0.00 | 94 | 1017.1 |
| 20260505232505 | 43 | 350 | 1.0 | 2.0 | 0.00 | 0.00 | 0.00 | 94 | 1016.8 |
| 20260505232305 | 43 | 343 | 0.0 | 2.0 | 0.00 | 0.00 | 0.00 | 94 | 1016.8 |
| 20260505232106 | 43 | 7 | 0.0 | 2.0 | 0.00 | 0.00 | 0.00 | 94 | 1017.0 |
| 20260505231929 | 43 | 347 | 1.0 | 2.0 | 0.00 | 0.00 | 0.00 | 94 | 1017.0 |
| 20260505231925 | 43 | 2 | 1.0 | 2.0 | 0.00 | 0.00 | 0.00 | 94 | 1017.0 |
| 20260505231506 | 43 | 27 | 2.0 | 2.0 | 0.00 | 0.00 | 0.00 | 94 | 1017.2 |
| 20260505231306 | 43 | 0 | 1.0 | 2.0 | 0.00 | 0.00 | 0.00 | 94 | 1016.8 |
| 20260505231105 | 43 | 354 | 0.0 | 2.0 | 0.00 | 0.00 | 0.00 | 94 | 1017.0 |
| 20260505230905 | 43 | 349 | 1.0 | 2.0 | 0.00 | 0.00 | 0.00 | 94 | 1016.8 |
| 20260505230706 | 43 | 345 | 1.0 | 2.0 | 0.00 | 0.00 | 0.00 | 94 | 1016.8 |
| 20260505230506 | 43 | 92 | 1.0 | 2.0 | 0.00 | 0.00 | 0.00 | 93 | 1016.8 |
| 20260505230308 | 43 | 12 | 0.0 | 2.0 | 0.00 | 0.00 | 0.00 | 93 | 1017.0 |
| 20260505230106 | 43 | 17 | 0.0 | 2.0 | 0.00 | 0.00 | 0.00 | 93 | 1016.6 |
| 20260505225905 | 44 | 5 | 0.0 | 2.0 | 0.00 | 0.00 | 0.00 | 93 | 1016.6 |
| 20260505225705 | 44 | 351 | 0.0 | 2.0 | 0.00 | 0.00 | 0.00 | 93 | 1016.6 |
| 20260505225505 | 44 | 49 | 0.0 | 2.0 | 0.00 | 0.00 | 0.00 | 93 | 1017.0 |
| 20260505225306 | 44 | 52 | 1.0 | 2.0 | 0.00 | 0.00 | 0.00 | 92 | 1017.2 |
| 20260505225105 | 44 | 317 | 0.0 | 2.0 | 0.00 | 0.00 | 0.00 | 92 | 1017.0 |
| 20260505224906 | 44 | 16 | 1.0 | 2.0 | 0.00 | 0.00 | 0.00 | 92 | 1017.1 |
| 20260505224705 | 44 | 171 | 0.0 | 2.0 | 0.00 | 0.00 | 0.00 | 92 | 1017.1 |
| 20260505224505 | 44 | 339 | 0.0 | 3.0 | 0.00 | 0.00 | 0.00 | 92 | 1017.0 |
| 20260505224305 | 45 | 12 | 0.0 | 3.0 | 0.00 | 0.00 | 0.00 | 92 | 1017.1 |
| 20260505224105 | 45 | 4 | 0.0 | 3.0 | 0.00 | 0.00 | 0.00 | 92 | 1017.0 |
| 20260505223906 | 45 | 13 | 2.0 | 3.0 | 0.00 | 0.00 | 0.00 | 92 | 1016.8 |
| 20260505223707 | 45 | 357 | 2.0 | 3.0 | 0.00 | 0.00 | 0.00 | 92 | 1017.0 |
| 20260505223506 | 45 | 7 | 2.0 | 3.0 | 0.00 | 0.00 | 0.00 | 92 | 1016.7 |
| 20260505223306 | 45 | 13 | 0.0 | 2.0 | 0.00 | 0.00 | 0.00 | 91 | 1016.8 |
| 20260505223105 | 45 | 27 | 0.0 | 2.0 | 0.00 | 0.00 | 0.00 | 91 | 1016.7 |
| 20260505222905 | 45 | 32 | 2.0 | 2.0 | 0.00 | 0.00 | 0.00 | 91 | 1017.2 |
| 20260505222706 | 45 | 0 | 1.0 | 2.0 | 0.00 | 0.00 | 0.00 | 91 | 1017.1 |
| 20260505222505 | 45 | 350 | 1.0 | 2.0 | 0.00 | 0.00 | 0.00 | 91 | 1017.1 |
| 20260505222306 | 45 | 311 | 0.0 | 2.0 | 0.00 | 0.00 | 0.00 | 91 | 1017.1 |
| 20260505222105 | 45 | 8 | 0.0 | 2.0 | 0.00 | 0.00 | 0.00 | 90 | 1017.3 |
| 20260505221905 | 45 | 6 | 0.0 | 2.0 | 0.00 | 0.00 | 0.00 | 90 | 1017.1 |
| 20260505221705 | 45 | 5 | 0.0 | 2.0 | 0.00 | 0.00 | 0.00 | 90 | 1017.2 |
| 20260505221505 | 45 | 351 | 0.0 | 2.0 | 0.00 | 0.00 | 0.00 | 90 | 1017.2 |
| 20260505221305 | 45 | 7 | 0.0 | 2.0 | 0.00 | 0.00 | 0.00 | 91 | 1017.0 |
| 20260505221106 | 45 | 345 | 0.0 | 3.0 | 0.00 | 0.00 | 0.00 | 91 | 1016.7 |
| 20260505220906 | 45 | 172 | 0.0 | 3.0 | 0.00 | 0.00 | 0.00 | 91 | 1016.7 |
| 20260505220706 | 45 | 19 | 0.0 | 3.0 | 0.00 | 0.00 | 0.00 | 91 | 1017.1 |
| 20260505220506 | 45 | 29 | 0.0 | 3.0 | 0.00 | 0.00 | 0.00 | 91 | 1017.1 |
| 20260505220306 | 45 | 31 | 2.0 | 3.0 | 0.00 | 0.00 | 0.00 | 91 | 1016.7 |
| 20260505220105 | 45 | 0 | 2.0 | 2.0 | 0.00 | 0.00 | 0.00 | 91 | 1016.8 |
| 20260505215905 | 45 | 30 | 2.0 | 2.0 | 0.00 | 0.00 | 0.00 | 91 | 1016.8 |
| 20260505215705 | 45 | 23 | 2.0 | 2.0 | 0.00 | 0.00 | 0.00 | 91 | 1016.8 |
| 20260505215508 | 45 | 7 | 0.0 | 2.0 | 0.00 | 0.00 | 0.00 | 91 | 1017.0 |
| 20260505215306 | 45 | 28 | 0.0 | 2.0 | 0.00 | 0.00 | 0.00 | 91 | 1017.1 |
| 20260505215105 | 45 | 69 | 0.0 | 2.0 | 0.00 | 0.00 | 0.00 | 91 | 1017.0 |
| 20260505214905 | 45 | 15 | 0.0 | 2.0 | 0.00 | 0.00 | 0.00 | 90 | 1017.0 |
| 20260505214705 | 45 | 29 | 2.0 | 2.0 | 0.00 | 0.00 | 0.00 | 90 | 1016.8 |
| 20260505214505 | 46 | 47 | 1.0 | 2.0 | 0.00 | 0.00 | 0.00 | 90 | 1016.8 |
| 20260505214305 | 46 | 64 | 0.0 | 2.0 | 0.00 | 0.00 | 0.00 | 89 | 1016.8 |
| 20260505214105 | 46 | 81 | 0.0 | 2.0 | 0.00 | 0.00 | 0.00 | 89 | 1016.7 |
| 20260505213905 | 46 | 46 | 0.0 | 2.0 | 0.00 | 0.00 | 0.00 | 89 | 1017.0 |
| 20260505213705 | 46 | 28 | 1.0 | 2.0 | 0.00 | 0.00 | 0.00 | 89 | 1017.0 |
| 20260505213505 | 46 | 2 | 0.0 | 2.0 | 0.00 | 0.00 | 0.00 | 89 | 1016.8 |
| 20260505213306 | 47 | 20 | 2.0 | 2.0 | 0.00 | 0.00 | 0.00 | 89 | 1016.8 |
| 20260505213106 | 47 | 9 | 2.0 | 2.0 | 0.00 | 0.00 | 0.00 | 88 | 1016.6 |
| 20260505212906 | 47 | 14 | 0.0 | 2.0 | 0.00 | 0.00 | 0.00 | 88 | 1017.0 |
| 20260505212705 | 47 | 357 | 0.0 | 2.0 | 0.00 | 0.00 | 0.00 | 88 | 1017.1 |
| 20260505212506 | 47 | 17 | 1.0 | 2.0 | 0.00 | 0.00 | 0.00 | 87 | 1017.0 |
| 20260505212306 | 47 | 353 | 1.0 | 2.0 | 0.00 | 0.00 | 0.00 | 87 | 1017.0 |
| 20260505212105 | 47 | 7 | 0.0 | 3.0 | 0.00 | 0.00 | 0.00 | 87 | 1016.6 |
| 20260505211905 | 47 | 8 | 0.0 | 3.0 | 0.00 | 0.00 | 0.00 | 87 | 1016.8 |
| 20260505211705 | 47 | 8 | 1.0 | 3.0 | 0.00 | 0.00 | 0.00 | 87 | 1016.8 |
| 20260505211506 | 47 | 6 | 1.0 | 3.0 | 0.00 | 0.00 | 0.00 | 87 | 1016.8 |
| 20260505211307 | 47 | 333 | 2.0 | 3.0 | 0.00 | 0.00 | 0.00 | 87 | 1016.8 |
| 20260505211105 | 47 | 0 | 0.0 | 2.0 | 0.00 | 0.00 | 0.00 | 87 | 1017.0 |
| 20260505210905 | 47 | 13 | 1.0 | 2.0 | 0.00 | 0.00 | 0.00 | 87 | 1017.0 |
| 20260505210707 | 47 | 333 | 1.0 | 2.0 | 0.00 | 0.00 | 0.00 | 87 | 1016.8 |
| 20260505210505 | 47 | 345 | 2.0 | 2.0 | 0.00 | 0.00 | 0.00 | 87 | 1017.0 |
| 20260505210306 | 47 | 5 | 0.0 | 3.0 | 0.00 | 0.00 | 0.00 | 87 | 1016.7 |
| 20260505210105 | 47 | 356 | 0.0 | 3.0 | 0.00 | 0.00 | 0.00 | 86 | 1016.8 |
| 20260505205906 | 47 | 0 | 2.0 | 3.0 | 0.00 | 0.00 | 0.00 | 86 | 1017.1 |
| 20260505205706 | 47 | 326 | 2.0 | 3.0 | 0.00 | 0.00 | 0.00 | 86 | 1017.0 |
| 20260505205505 | 48 | 0 | 2.0 | 3.0 | 0.00 | 0.00 | 0.00 | 86 | 1016.8 |
| 20260505205305 | 48 | 342 | 0.0 | 2.0 | 0.00 | 0.00 | 0.00 | 86 | 1016.7 |
| 20260505205105 | 48 | 9 | 0.0 | 2.0 | 0.00 | 0.00 | 0.00 | 86 | 1016.6 |
| 20260505204905 | 48 | 354 | 0.0 | 2.0 | 0.00 | 0.00 | 0.00 | 85 | 1016.7 |
| 20260505204705 | 48 | 14 | 0.0 | 3.0 | 0.00 | 0.00 | 0.00 | 85 | 1016.7 |
| 20260505204506 | 48 | 341 | 2.0 | 3.0 | 0.00 | 0.00 | 0.00 | 85 | 1016.7 |
| 20260505204306 | 48 | 345 | 1.0 | 3.0 | 0.00 | 0.00 | 0.00 | 84 | 1016.7 |
| 20260505204106 | 48 | 341 | 2.0 | 3.0 | 0.00 | 0.00 | 0.00 | 85 | 1016.7 |
| 20260505203906 | 48 | 311 | 0.0 | 3.0 | 0.00 | 0.00 | 0.00 | 84 | 1016.7 |
| 20260505203706 | 48 | 0 | 2.0 | 2.0 | 0.00 | 0.00 | 0.00 | 84 | 1016.7 |
| 20260505203506 | 48 | 292 | 2.0 | 2.0 | 0.00 | 0.00 | 0.00 | 84 | 1016.6 |
| 20260505203306 | 48 | 316 | 2.0 | 2.0 | 0.00 | 0.00 | 0.00 | 84 | 1016.5 |
| 20260505203106 | 48 | 3 | 0.0 | 2.0 | 0.00 | 0.00 | 0.00 | 84 | 1016.7 |
| 20260505202905 | 49 | 1 | 1.0 | 2.0 | 0.00 | 0.00 | 0.00 | 84 | 1016.6 |
| 20260505202705 | 49 | 353 | 0.0 | 3.0 | 0.00 | 0.00 | 0.00 | 84 | 1016.6 |
| 20260505202307 | 49 | 341 | 1.0 | 3.0 | 0.00 | 0.00 | 0.00 | 84 | 1016.8 |
| 20260505202105 | 49 | 345 | 2.0 | 3.0 | 0.00 | 0.00 | 0.00 | 84 | 1016.5 |
| 20260505201905 | 49 | 335 | 2.0 | 2.0 | 0.00 | 0.00 | 0.00 | 83 | 1016.6 |
| 20260505201705 | 49 | 0 | 2.0 | 2.0 | 0.00 | 0.00 | 0.00 | 83 | 1016.5 |
| 20260505201506 | 49 | 346 | 0.0 | 2.0 | 0.00 | 0.00 | 0.00 | 83 | 1016.6 |
| 20260505201306 | 49 | 339 | 1.0 | 2.0 | 0.00 | 0.00 | 0.00 | 83 | 1016.6 |
| 20260505201106 | 49 | 353 | 0.0 | 2.0 | 0.00 | 0.00 | 0.00 | 83 | 1016.6 |
| 20260505200906 | 49 | 4 | 0.0 | 3.0 | 0.00 | 0.00 | 0.00 | 83 | 1016.6 |
| 20260505200706 | 50 | 2 | 0.0 | 3.0 | 0.00 | 0.00 | 0.00 | 83 | 1016.4 |
| 20260505200505 | 49 | 21 | 1.0 | 3.0 | 0.00 | 0.00 | 0.00 | 83 | 1016.4 |
| 20260505200305 | 50 | 335 | 1.0 | 3.0 | 0.00 | 0.00 | 0.00 | 82 | 1016.3 |
| 20260505200106 | 50 | 29 | 2.0 | 3.0 | 0.00 | 0.00 | 0.00 | 82 | 1016.3 |
| 20260505195905 | 50 | 66 | 1.0 | 3.0 | 0.00 | 0.00 | 0.00 | 82 | 1016.4 |
| 20260505195706 | 50 | 31 | 2.0 | 3.0 | 0.00 | 0.00 | 0.00 | 82 | 1016.4 |
| 20260505195505 | 49 | 49 | 1.0 | 3.0 | 0.00 | 0.00 | 0.00 | 82 | 1016.5 |
| 20260505195305 | 50 | 65 | 1.0 | 3.0 | 0.00 | 0.00 | 0.00 | 82 | 1016.2 |
| 20260505195105 | 50 | 7 | 0.0 | 3.0 | 0.00 | 0.00 | 0.00 | 82 | 1016.4 |
| 20260505194907 | 50 | 0 | 1.0 | 2.0 | 0.00 | 0.00 | 0.00 | 82 | 1016.5 |
| 20260505194705 | 50 | 25 | 0.0 | 2.0 | 0.00 | 0.00 | 0.00 | 82 | 1016.1 |
| 20260505194506 | 50 | 322 | 1.0 | 2.0 | 0.00 | 0.00 | 0.00 | 82 | 1016.2 |
| 20260505194305 | 50 | 38 | 1.0 | 2.0 | 0.00 | 0.00 | 0.00 | 81 | 1016.2 |
| 20260505194105 | 50 | 238 | 0.0 | 4.0 | 0.00 | 0.00 | 0.00 | 81 | 1016.3 |
| 20260505193905 | 50 | 102 | 1.0 | 4.0 | 0.00 | 0.00 | 0.00 | 80 | 1016.2 |
| 20260505193705 | 51 | 197 | 1.0 | 4.0 | 0.00 | 0.00 | 0.00 | 80 | 1016.3 |
| 20260505193506 | 51 | 183 | 0.0 | 4.0 | 0.00 | 0.00 | 0.00 | 78 | 1016.5 |
| 20260505193306 | 51 | 95 | 2.0 | 4.0 | 0.00 | 0.00 | 0.00 | 78 | 1016.2 |
| 20260505193106 | 51 | 228 | 0.0 | 2.0 | 0.00 | 0.00 | 0.00 | 78 | 1016.1 |
| 20260505192906 | 51 | 308 | 0.0 | 2.0 | 0.00 | 0.00 | 0.00 | 78 | 1016.3 |
| 20260505192706 | 52 | 219 | 0.0 | 3.0 | 0.00 | 0.00 | 0.00 | 77 | 1016.3 |
| 20260505192505 | 53 | 164 | 0.0 | 3.0 | 0.00 | 0.00 | 0.00 | 76 | 1016.2 |
| 20260505192306 | 53 | 89 | 0.0 | 3.0 | 0.00 | 0.00 | 0.00 | 73 | 1016.0 |
| 20260505192105 | 53 | 71 | 0.0 | 3.0 | 0.00 | 0.00 | 0.00 | 72 | 1016.0 |
| 20260505191905 | 53 | 312 | 1.0 | 3.0 | 0.00 | 0.00 | 0.00 | 73 | 1016.1 |
| 20260505191706 | 53 | 272 | 2.0 | 3.0 | 0.00 | 0.00 | 0.00 | 73 | 1016.2 |
| 20260505191506 | 53 | 49 | 0.0 | 2.0 | 0.00 | 0.00 | 0.00 | 74 | 1016.1 |
| 20260505191306 | 53 | 96 | 2.0 | 2.0 | 0.00 | 0.00 | 0.00 | 74 | 1016.2 |
| 20260505191105 | 53 | 322 | 1.0 | 2.0 | 0.00 | 0.00 | 0.00 | 73 | 1016.0 |
| 20260505190906 | 53 | 278 | 0.0 | 2.0 | 0.00 | 0.00 | 0.00 | 73 | 1016.0 |
| 20260505190709 | 54 | 71 | 0.0 | 2.0 | 0.00 | 0.00 | 0.00 | 74 | 1016.2 |
| 20260505190506 | 53 | 23 | 0.0 | 2.0 | 0.00 | 0.00 | 0.00 | 74 | 1016.1 |
| 20260505190305 | 54 | 41 | 2.0 | 2.0 | 0.00 | 0.00 | 0.00 | 73 | 1015.8 |
| 20260505190105 | 54 | 84 | 1.0 | 2.0 | 0.00 | 0.00 | 0.00 | 73 | 1016.0 |
| 20260505185905 | 54 | 101 | 1.0 | 2.0 | 0.00 | 0.00 | 0.00 | 72 | 1016.0 |
| 20260505185706 | 54 | 37 | 0.0 | 2.0 | 0.00 | 0.00 | 0.00 | 72 | 1015.7 |
| 20260505185506 | 54 | 54 | 0.0 | 2.0 | 0.00 | 0.00 | 0.00 | 71 | 1015.8 |
| 20260505185306 | 54 | 55 | 2.0 | 3.0 | 0.00 | 0.00 | 0.00 | 73 | 1015.9 |
| 20260505185105 | 54 | 81 | 2.0 | 3.0 | 0.00 | 0.00 | 0.00 | 73 | 1016.0 |
| 20260505184906 | 54 | 32 | 0.0 | 3.0 | 0.00 | 0.00 | 0.00 | 73 | 1016.0 |
| 20260505184706 | 54 | 22 | 0.0 | 3.0 | 0.00 | 0.00 | 0.00 | 72 | 1015.9 |
| 20260505184506 | 54 | 59 | 1.0 | 3.0 | 0.00 | 0.00 | 0.00 | 72 | 1015.8 |
| 20260505184307 | 54 | 70 | 2.0 | 2.0 | 0.00 | 0.00 | 0.00 | 72 | 1015.8 |
| 20260505184105 | 55 | 25 | 0.0 | 1.0 | 0.00 | 0.00 | 0.00 | 71 | 1016.0 |
| 20260505183905 | 55 | 260 | 0.0 | 1.0 | 0.00 | 0.00 | 0.00 | 71 | 1015.8 |
| 20260505183706 | 55 | 237 | 0.0 | 1.0 | 0.00 | 0.00 | 0.00 | 71 | 1015.9 |
| 20260505183506 | 55 | 290 | 0.0 | 1.0 | 0.00 | 0.00 | 0.00 | 70 | 1015.8 |
| 20260505183306 | 55 | 162 | 0.0 | 1.0 | 0.00 | 0.00 | 0.00 | 69 | 1015.8 |
| 20260505183105 | 55 | 102 | 0.0 | 1.0 | 0.00 | 0.00 | 0.00 | 69 | 1015.8 |
| 20260505182906 | 55 | 48 | 0.0 | 1.0 | 0.00 | 0.00 | 0.00 | 70 | 1015.7 |
| 20260505182706 | 56 | 358 | 0.0 | 1.0 | 0.00 | 0.00 | 0.00 | 70 | 1015.8 |
| 20260505182506 | 56 | 215 | 0.0 | 1.0 | 0.00 | 0.00 | 0.00 | 68 | 1015.7 |
| 20260505182306 | 56 | 306 | 0.0 | 1.0 | 0.00 | 0.00 | 0.00 | 67 | 1015.7 |
| 20260505182105 | 56 | 310 | 1.0 | 1.0 | 0.00 | 0.00 | 0.00 | 68 | 1015.6 |
| 20260505181905 | 56 | 311 | 0.0 | 1.0 | 0.00 | 0.00 | 0.00 | 68 | 1015.5 |
| 20260505181705 | 56 | 132 | 0.0 | 1.0 | 0.00 | 0.00 | 0.00 | 67 | 1015.7 |
| 20260505181506 | 56 | 135 | 0.0 | 2.0 | 0.00 | 0.00 | 0.00 | 67 | 1015.6 |
| 20260505181306 | 57 | 347 | 0.0 | 2.0 | 0.00 | 0.00 | 0.00 | 66 | 1015.5 |
| 20260505181106 | 57 | 135 | 0.0 | 2.0 | 0.00 | 0.00 | 0.00 | 65 | 1015.7 |
| 20260505180905 | 57 | 211 | 0.0 | 2.0 | 0.00 | 0.00 | 0.00 | 65 | 1015.6 |
| 20260505180705 | 57 | 205 | 0.0 | 2.0 | 0.00 | 0.00 | 0.00 | 63 | 1015.4 |
| 20260505180506 | 57 | 205 | 1.0 | 2.0 | 0.00 | 0.00 | 0.00 | 66 | 1015.5 |
| 20260505180306 | 57 | 149 | 1.0 | 2.0 | 0.00 | 0.00 | 0.00 | 66 | 1015.4 |
| 20260505180105 | 57 | 41 | 0.0 | 2.0 | 0.00 | 0.00 | 0.00 | 66 | 1015.4 |
| 20260505175905 | 57 | 37 | 0.0 | 2.0 | 0.00 | 0.00 | 0.00 | 66 | 1015.4 |
| 20260505175705 | 58 | 303 | 1.0 | 2.0 | 0.00 | 0.00 | 0.00 | 64 | 1015.3 |
| 20260505175506 | 58 | 225 | 0.0 | 2.0 | 0.00 | 0.00 | 0.00 | 64 | 1015.4 |
| 20260505175306 | 58 | 186 | 0.0 | 2.0 | 0.00 | 0.00 | 0.00 | 63 | 1015.4 |
| 20260505175105 | 59 | 72 | 0.0 | 2.0 | 0.00 | 0.00 | 0.00 | 60 | 1015.5 |
| 20260505174905 | 59 | 133 | 0.0 | 2.0 | 0.00 | 0.00 | 0.00 | 60 | 1015.3 |
| 20260505174705 | 59 | 91 | 0.0 | 2.0 | 0.00 | 0.00 | 0.00 | 60 | 1015.3 |
| 20260505174505 | 60 | 180 | 1.0 | 2.0 | 0.00 | 0.00 | 0.00 | 56 | 1015.3 |
| 20260505174307 | 60 | 306 | 0.0 | 2.0 | 0.00 | 0.00 | 0.00 | 58 | 1015.4 |
| 20260505174105 | 60 | 315 | 0.0 | 2.0 | 0.00 | 0.00 | 0.00 | 58 | 1015.0 |
| 20260505173706 | 60 | 232 | 0.0 | 2.0 | 0.00 | 0.00 | 0.00 | 56 | 1015.2 |
| 20260505173505 | 61 | 165 | 1.0 | 2.0 | 0.00 | 0.00 | 0.00 | 58 | 1015.3 |
| 20260505173305 | 61 | 186 | 0.0 | 1.0 | 0.00 | 0.00 | 0.00 | 55 | 1015.2 |
| 20260505173106 | 62 | 293 | 0.0 | 1.0 | 0.00 | 0.00 | 0.00 | 55 | 1015.2 |
| 20260505172905 | 62 | 217 | 0.0 | 1.0 | 0.00 | 0.00 | 0.00 | 55 | 1015.1 |
| 20260505172705 | 62 | 224 | 0.0 | 1.0 | 0.00 | 0.00 | 0.00 | 54 | 1015.1 |
| 20260505172505 | 63 | 310 | 0.0 | 1.0 | 0.00 | 0.00 | 0.00 | 54 | 1015.2 |
| 20260505172306 | 63 | 186 | 0.0 | 1.0 | 0.00 | 0.00 | 0.00 | 55 | 1015.3 |
| 20260505172105 | 63 | 176 | 0.0 | 1.0 | 0.00 | 0.00 | 0.00 | 54 | 1015.2 |
| 20260505171906 | 64 | 0 | 0.0 | 1.0 | 0.00 | 0.00 | 0.00 | 55 | 1015.2 |
| 20260505171706 | 64 | 243 | 0.0 | 1.0 | 0.00 | 0.00 | 0.00 | 53 | 1015.2 |
| 20260505171610 | 64 | 343 | 0.0 | 2.0 | 0.00 | 0.00 | 0.00 | 52 | 1015.1 |
| 20260505171305 | 65 | 212 | 0.0 | 2.0 | 0.00 | 0.00 | 0.00 | 53 | 1015.2 |
| 20260505171106 | 65 | 285 | 1.0 | 2.0 | 0.00 | 0.00 | 0.00 | 53 | 1015.1 |
| 20260505170906 | 66 | 192 | 0.0 | 2.0 | 0.00 | 0.00 | 0.00 | 51 | 1015.0 |
| 20260505170705 | 66 | 203 | 0.0 | 2.0 | 0.00 | 0.00 | 0.00 | 50 | 1015.1 |
| 20260505170506 | 67 | 193 | 1.0 | 2.0 | 0.00 | 0.00 | 0.00 | 49 | 1015.3 |
| 20260505170306 | 67 | 213 | 0.0 | 2.0 | 0.00 | 0.00 | 0.00 | 47 | 1015.2 |
| 20260505170106 | 68 | 194 | 0.0 | 2.0 | 0.00 | 0.00 | 0.00 | 45 | 1015.1 |
| 20260505165909 | 68 | 22 | 0.0 | 2.0 | 0.00 | 0.00 | 0.00 | 45 | 1015.2 |
| 20260505165705 | 68 | 195 | 0.0 | 2.0 | 0.00 | 0.00 | 0.00 | 44 | 1015.4 |
| 20260505165505 | 68 | 166 | 0.0 | 2.0 | 0.00 | 0.00 | 0.00 | 42 | 1015.2 |
| 20260505165306 | 69 | 174 | 0.0 | 2.0 | 0.00 | 0.00 | 0.00 | 42 | 1015.4 |
| 20260505165105 | 69 | 179 | 1.0 | 2.0 | 0.00 | 0.00 | 0.00 | 41 | 1015.2 |
| 20260505164905 | 69 | 204 | 0.0 | 2.0 | 0.00 | 0.00 | 0.00 | 42 | 1015.2 |
| 20260505164705 | 70 | 300 | 1.0 | 2.0 | 0.00 | 0.00 | 0.00 | 40 | 1015.2 |
| 20260505164508 | 70 | 212 | 0.0 | 2.0 | 0.00 | 0.00 | 0.00 | 40 | 1015.2 |
| 20260505164306 | 70 | 353 | 0.0 | 2.0 | 0.00 | 0.00 | 0.00 | 39 | 1015.2 |
| 20260505164105 | 70 | 0 | 0.0 | 2.0 | 0.00 | 0.00 | 0.00 | 38 | 1015.2 |
| 20260505163905 | 71 | 333 | 0.0 | 2.0 | 0.00 | 0.00 | 0.00 | 37 | 1015.2 |
| 20260505163705 | 71 | 343 | 0.0 | 2.0 | 0.00 | 0.00 | 0.00 | 35 | 1015.1 |
| 20260505163505 | 71 | 302 | 0.0 | 2.0 | 0.00 | 0.00 | 0.00 | 36 | 1015.0 |
| 20260505163305 | 72 | 185 | 0.0 | 2.0 | 0.00 | 0.00 | 0.00 | 36 | 1015.2 |
| 20260505163105 | 72 | 225 | 0.0 | 2.0 | 0.00 | 0.00 | 0.00 | 36 | 1015.1 |
| 20260505162905 | 72 | 11 | 2.0 | 2.0 | 0.00 | 0.00 | 0.00 | 35 | 1015.1 |
| 20260505162705 | 72 | 357 | 0.0 | 2.0 | 0.00 | 0.00 | 0.00 | 35 | 1015.0 |
| 20260505162505 | 72 | 268 | 0.0 | 2.0 | 0.00 | 0.00 | 0.00 | 34 | 1015.1 |
| 20260505162307 | 72 | 213 | 0.0 | 4.0 | 0.00 | 0.00 | 0.00 | 35 | 1015.1 |
| 20260505162105 | 72 | 345 | 0.0 | 5.0 | 0.00 | 0.00 | 0.00 | 34 | 1015.0 |
| 20260505161907 | 72 | 0 | 0.0 | 5.0 | 0.00 | 0.00 | 0.00 | 35 | 1015.2 |
| 20260505161705 | 72 | 25 | 0.0 | 5.0 | 0.00 | 0.00 | 0.00 | 34 | 1015.2 |
| 20260505161506 | 72 | 42 | 0.0 | 5.0 | 0.00 | 0.00 | 0.00 | 34 | 1015.1 |
| 20260505161306 | 72 | 20 | 2.0 | 5.0 | 0.00 | 0.00 | 0.00 | 33 | 1015.1 |
| 20260505161105 | 72 | 41 | 0.0 | 4.0 | 0.00 | 0.00 | 0.00 | 33 | 1015.1 |
| 20260505160905 | 72 | 2 | 2.0 | 4.0 | 0.00 | 0.00 | 0.00 | 33 | 1015.3 |
| 20260505160705 | 72 | 359 | 0.0 | 4.0 | 0.00 | 0.00 | 0.00 | 32 | 1015.2 |
| 20260505160505 | 71 | 25 | 0.0 | 4.0 | 0.00 | 0.00 | 0.00 | 33 | 1015.3 |
| 20260505160305 | 71 | 327 | 0.0 | 5.0 | 0.00 | 0.00 | 0.00 | 34 | 1015.3 |
| 20260505160105 | 72 | 312 | 0.0 | 5.0 | 0.00 | 0.00 | 0.00 | 34 | 1015.4 |
| 20260505153305 | 72 | 185 | 0.0 | 5.0 | 0.00 | 0.00 | 0.00 | 33 | 1015.4 |
| 20260505153105 | 71 | 269 | 3.0 | 5.0 | 0.00 | 0.00 | 0.00 | 33 | 1015.3 |
| 20260505152905 | 71 | 211 | 1.0 | 5.0 | 0.00 | 0.00 | 0.00 | 35 | 1015.4 |
| 20260505152705 | 71 | 14 | 0.0 | 5.0 | 0.00 | 0.00 | 0.00 | 34 | 1015.2 |
| 20260505152505 | 71 | 28 | 2.0 | 5.0 | 0.00 | 0.00 | 0.00 | 35 | 1015.5 |
| 20260505152105 | 71 | 34 | 0.0 | 5.0 | 0.00 | 0.00 | 0.00 | 34 | 1015.4 |
| 20260505151905 | 72 | 31 | 2.0 | 4.0 | 0.00 | 0.00 | 0.00 | 34 | 1015.4 |
| 20260505151705 | 72 | 170 | 2.0 | 5.0 | 0.00 | 0.00 | 0.00 | 34 | 1015.3 |
| 20260505151506 | 73 | 51 | 2.0 | 5.0 | 0.00 | 0.00 | 0.00 | 33 | 1015.3 |
| 20260505151305 | 73 | 203 | 0.0 | 5.0 | 0.00 | 0.00 | 0.00 | 32 | 1015.5 |
| 20260505151105 | 73 | 12 | 1.0 | 5.0 | 0.00 | 0.00 | 0.00 | 33 | 1015.5 |
| 20260505150905 | 73 | 263 | 1.0 | 5.0 | 0.00 | 0.00 | 0.00 | 32 | 1015.2 |
| 20260505150705 | 73 | 230 | 0.0 | 6.0 | 0.00 | 0.00 | 0.00 | 33 | 1015.3 |
| 20260505150505 | 73 | 175 | 0.0 | 6.0 | 0.00 | 0.00 | 0.00 | 32 | 1015.4 |
| 20260505150305 | 73 | 278 | 2.0 | 6.0 | 0.00 | 0.00 | 0.00 | 32 | 1015.2 |
| 20260505150106 | 73 | 3 | 3.0 | 6.0 | 0.00 | 0.00 | 0.00 | 32 | 1015.4 |
| 20260505140505 | 72 | 22 | 2.0 | 6.0 | 0.00 | 0.00 | 0.00 | 34 | 1015.1 |
| 20260505140305 | 72 | 60 | 2.0 | 6.0 | 0.00 | 0.00 | 0.00 | 34 | 1015.1 |
| 20260505140105 | 72 | 339 | 3.0 | 5.0 | 0.00 | 0.00 | 0.00 | 33 | 1015.2 |
| 20260505130253 | 75 | 286 | 1.0 | 4.0 | 0.00 | 0.00 | 0.00 | 32 | 1015.4 |
| 20260505124854 | 72 | 324 | 1.0 | 5.0 | 0.00 | 0.00 | 0.00 | 37 | 1015.3 |
| 20260505124654 | 72 | 110 | 1.0 | 5.0 | 0.00 | 0.00 | 0.00 | 36 | 1015.5 |
| 20260505124454 | 73 | 207 | 0.0 | 5.0 | 0.00 | 0.00 | 0.00 | 35 | 1015.4 |
| 20260505124254 | 72 | 347 | 3.0 | 8.0 | 0.00 | 0.00 | 0.00 | 35 | 1015.4 |
| 20260505124053 | 73 | 3 | 2.0 | 8.0 | 0.00 | 0.00 | 0.00 | 36 | 1015.4 |
| 20260505123854 | 73 | 2 | 0.0 | 8.0 | 0.00 | 0.00 | 0.00 | 35 | 1015.3 |
| 20260505123654 | 73 | 1 | 3.0 | 8.0 | 0.00 | 0.00 | 0.00 | 34 | 1015.4 |
| 20260505123454 | 73 | 23 | 2.0 | 8.0 | 0.00 | 0.00 | 0.00 | 34 | 1015.6 |
| 20260505123254 | 74 | 7 | 4.0 | 5.0 | 0.00 | 0.00 | 0.00 | 34 | 1015.5 |
| 20260505123053 | 74 | 42 | 3.0 | 5.0 | 0.00 | 0.00 | 0.00 | 34 | 1015.4 |
| 20260505122853 | 74 | 14 | 2.0 | 5.0 | 0.00 | 0.00 | 0.00 | 34 | 1015.4 |
| 20260505122653 | 74 | 210 | 1.0 | 5.0 | 0.00 | 0.00 | 0.00 | 34 | 1015.4 |
| 20260505122453 | 74 | 10 | 0.0 | 5.0 | 0.00 | 0.00 | 0.00 | 35 | 1015.5 |
| 20260505122253 | 73 | 223 | 0.0 | 8.0 | 0.00 | 0.00 | 0.00 | 36 | 1015.7 |
| 20260505122053 | 72 | 107 | 0.0 | 8.0 | 0.00 | 0.00 | 0.00 | 37 | 1015.6 |
| 20260505121853 | 73 | 31 | 3.0 | 8.0 | 0.00 | 0.00 | 0.00 | 35 | 1015.5 |
| 20260505121653 | 73 | 9 | 3.0 | 8.0 | 0.00 | 0.00 | 0.00 | 35 | 1015.6 |
| 20260505121453 | 73 | 41 | 0.0 | 8.0 | 0.00 | 0.00 | 0.00 | 34 | 1015.4 |
| 20260505121253 | 73 | 18 | 4.0 | 6.0 | 0.00 | 0.00 | 0.00 | 34 | 1015.7 |
| 20260505121053 | 73 | 0 | 2.0 | 6.0 | 0.00 | 0.00 | 0.00 | 34 | 1015.6 |
| 20260505120853 | 74 | 75 | 3.0 | 9.0 | 0.00 | 0.00 | 0.00 | 33 | 1015.5 |
| 20260505120653 | 75 | 4 | 2.0 | 9.0 | 0.00 | 0.00 | 0.00 | 33 | 1015.5 |
| 20260505120453 | 75 | 38 | 2.0 | 9.0 | 0.00 | 0.00 | 0.00 | 34 | 1015.4 |
| 20260505120255 | 75 | 14 | 1.0 | 9.0 | 0.00 | 0.00 | 0.00 | 34 | 1015.7 |
| 20260505115854 | 75 | 24 | 3.0 | 5.0 | 0.00 | 0.00 | 0.00 | 33 | 1015.6 |
| 20260505115654 | 74 | 17 | 1.0 | 5.0 | 0.00 | 0.00 | 0.00 | 34 | 1015.6 |
| 20260505115454 | 74 | 4 | 1.0 | 5.0 | 0.00 | 0.00 | 0.00 | 33 | 1015.9 |
| 20260505115252 | 74 | 253 | 0.0 | 5.0 | 0.00 | 0.00 | 0.00 | 34 | 1015.7 |
| 20260505115054 | 74 | 27 | 2.0 | 5.0 | 0.00 | 0.00 | 0.00 | 33 | 1015.5 |
| 20260505114853 | 74 | 15 | 2.0 | 6.0 | 0.00 | 0.00 | 0.00 | 32 | 1015.7 |
| 20260505114653 | 74 | 40 | 2.0 | 6.0 | 0.00 | 0.00 | 0.00 | 31 | 1015.6 |
| 20260505114453 | 74 | 342 | 3.0 | 6.0 | 0.00 | 0.00 | 0.00 | 31 | 1015.8 |
| 20260505114253 | 75 | 354 | 2.0 | 6.0 | 0.00 | 0.00 | 0.00 | 31 | 1015.7 |
| 20260505114053 | 75 | 1 | 4.0 | 9.0 | 0.00 | 0.00 | 0.00 | 30 | 1015.7 |
| 20260505113853 | 75 | 19 | 3.0 | 9.0 | 0.00 | 0.00 | 0.00 | 31 | 1015.6 |
| 20260505113653 | 75 | 293 | 0.0 | 9.0 | 0.00 | 0.00 | 0.00 | 30 | 1015.7 |
| 20260505113453 | 76 | 15 | 2.0 | 9.0 | 0.00 | 0.00 | 0.00 | 30 | 1015.8 |
| 20260505113254 | 75 | 14 | 2.0 | 9.0 | 0.00 | 0.00 | 0.00 | 31 | 1015.7 |
| 20260505113053 | 74 | 184 | 2.0 | 9.0 | 0.00 | 0.00 | 0.00 | 32 | 1015.8 |
| 20260505112854 | 74 | 341 | 2.0 | 9.0 | 0.00 | 0.00 | 0.00 | 32 | 1015.6 |
| 20260505112653 | 73 | 25 | 4.0 | 9.0 | 0.00 | 0.00 | 0.00 | 33 | 1015.8 |
| 20260505112454 | 73 | 357 | 2.0 | 9.0 | 0.00 | 0.00 | 0.00 | 34 | 1015.6 |
| 20260505112254 | 73 | 358 | 1.0 | 10.0 | 0.00 | 0.00 | 0.00 | 33 | 1015.6 |
| 20260505112055 | 74 | 23 | 5.0 | 10.0 | 0.00 | 0.00 | 0.00 | 33 | 1015.8 |
| 20260505111854 | 74 | 7 | 3.0 | 10.0 | 0.00 | 0.00 | 0.00 | 32 | 1015.7 |
| 20260505111656 | 75 | 112 | 0.0 | 10.0 | 0.00 | 0.00 | 0.00 | 32 | 1015.7 |
| 20260505111454 | 74 | 16 | 4.0 | 10.0 | 0.00 | 0.00 | 0.00 | 31 | 1015.6 |
| 20260505111253 | 75 | 19 | 3.0 | 11.0 | 0.00 | 0.00 | 0.00 | 31 | 1015.6 |
| 20260505111053 | 76 | 30 | 4.0 | 11.0 | 0.00 | 0.00 | 0.00 | 30 | 1015.9 |
| 20260505110853 | 75 | 305 | 1.0 | 11.0 | 0.00 | 0.00 | 0.00 | 31 | 1015.6 |
| 20260505110653 | 75 | 26 | 2.0 | 11.0 | 0.00 | 0.00 | 0.00 | 30 | 1015.7 |
| 20260505110453 | 75 | 317 | 0.0 | 11.0 | 0.00 | 0.00 | 0.00 | 31 | 1015.7 |
| 20260505110253 | 74 | 13 | 2.0 | 11.0 | 0.00 | 0.00 | 0.00 | 32 | 1015.9 |
| 20260505102106 | 74 | 174 | 3.0 | 6.0 | 0.00 | 0.00 | 0.00 | 39 | 1016.0 |
| 20260505101853 | 73 | 75 | 2.0 | 6.0 | 0.00 | 0.00 | 0.00 | 40 | 1016.0 |
| 20260505101653 | 74 | 190 | 3.0 | 6.0 | 0.00 | 0.00 | 0.00 | 38 | 1015.9 |
| 20260505101454 | 74 | 181 | 2.0 | 6.0 | 0.00 | 0.00 | 0.00 | 39 | 1015.9 |
| 20260505101254 | 75 | 192 | 2.0 | 5.0 | 0.00 | 0.00 | 0.00 | 39 | 1016.0 |
| 20260505101054 | 74 | 198 | 2.0 | 5.0 | 0.00 | 0.00 | 0.00 | 41 | 1016.0 |
| 20260505100854 | 74 | 323 | 2.0 | 5.0 | 0.00 | 0.00 | 0.00 | 39 | 1015.9 |
| 20260505100654 | 74 | 249 | 1.0 | 5.0 | 0.00 | 0.00 | 0.00 | 38 | 1015.8 |
| 20260505100454 | 74 | 162 | 1.0 | 5.0 | 0.00 | 0.00 | 0.00 | 40 | 1015.9 |
| 20260505100254 | 74 | 213 | 2.0 | 3.0 | 0.00 | 0.00 | 0.00 | 42 | 1016.1 |
| 20260505100053 | 74 | 223 | 2.0 | 3.0 | 0.00 | 0.00 | 0.00 | 43 | 1015.9 |
| 20260505095854 | 74 | 86 | 2.0 | 4.0 | 0.00 | 0.00 | 0.00 | 39 | 1016.0 |
| 20260505095655 | 73 | 243 | 0.0 | 5.0 | 0.00 | 0.00 | 0.00 | 41 | 1015.8 |
| 20260505095453 | 72 | 227 | 3.0 | 6.0 | 0.00 | 0.00 | 0.00 | 47 | 1016.1 |
| 20260505095253 | 73 | 91 | 0.0 | 6.0 | 0.00 | 0.00 | 0.00 | 40 | 1016.0 |
| 20260505095053 | 72 | 184 | 2.0 | 6.0 | 0.00 | 0.00 | 0.00 | 43 | 1016.1 |
| 20260505094853 | 72 | 148 | 3.0 | 6.0 | 0.00 | 0.00 | 0.00 | 42 | 1016.2 |
| 20260505094653 | 72 | 192 | 4.0 | 6.0 | 0.00 | 0.00 | 0.00 | 40 | 1016.3 |
| 20260505094453 | 73 | 195 | 2.0 | 6.0 | 0.00 | 0.00 | 0.00 | 43 | 1016.2 |
| 20260505094253 | 73 | 186 | 4.0 | 6.0 | 0.00 | 0.00 | 0.00 | 43 | 1016.2 |
| 20260505094054 | 73 | 60 | 2.0 | 6.0 | 0.00 | 0.00 | 0.00 | 40 | 1016.1 |
| 20260505093853 | 73 | 166 | 0.0 | 5.0 | 0.00 | 0.00 | 0.00 | 42 | 1016.3 |
| 20260505093653 | 73 | 121 | 0.0 | 6.0 | 0.00 | 0.00 | 0.00 | 42 | 1016.2 |
| 20260505093453 | 73 | 222 | 2.0 | 6.0 | 0.00 | 0.00 | 0.00 | 41 | 1016.3 |
| 20260505093253 | 72 | 26 | 1.0 | 6.0 | 0.00 | 0.00 | 0.00 | 39 | 1016.2 |
| 20260505093053 | 73 | 2 | 2.0 | 6.0 | 0.00 | 0.00 | 0.00 | 40 | 1016.3 |
| 20260505092853 | 73 | 174 | 2.0 | 6.0 | 0.00 | 0.00 | 0.00 | 40 | 1016.2 |
| 20260505092653 | 73 | 229 | 0.0 | 6.0 | 0.00 | 0.00 | 0.00 | 44 | 1016.4 |
| 20260505092453 | 72 | 261 | 2.0 | 6.0 | 0.00 | 0.00 | 0.00 | 44 | 1016.3 |
| 20260505092253 | 72 | 152 | 2.0 | 6.0 | 0.00 | 0.00 | 0.00 | 43 | 1016.3 |
| 20260505092053 | 72 | 7 | 2.0 | 6.0 | 0.00 | 0.00 | 0.00 | 42 | 1016.3 |
| 20260505091853 | 72 | 179 | 6.0 | 6.0 | 0.00 | 0.00 | 0.00 | 42 | 1016.3 |
| 20260505091653 | 72 | 148 | 2.0 | 6.0 | 0.00 | 0.00 | 0.00 | 44 | 1016.4 |
| 20260505091455 | 72 | 177 | 3.0 | 6.0 | 0.00 | 0.00 | 0.00 | 41 | 1016.3 |
| 20260505091253 | 72 | 144 | 2.0 | 6.0 | 0.00 | 0.00 | 0.00 | 42 | 1016.4 |
| 20260505091053 | 71 | 127 | 1.0 | 6.0 | 0.00 | 0.00 | 0.00 | 47 | 1016.5 |
| 20260505090854 | 71 | 143 | 2.0 | 5.0 | 0.00 | 0.00 | 0.00 | 45 | 1016.3 |
| 20260505090654 | 72 | 182 | 3.0 | 4.0 | 0.00 | 0.00 | 0.00 | 44 | 1016.2 |
| 20260505090454 | 72 | 153 | 1.0 | 4.0 | 0.00 | 0.00 | 0.00 | 44 | 1016.5 |
| 20260505090254 | 71 | 125 | 1.0 | 7.0 | 0.00 | 0.00 | 0.00 | 44 | 1016.4 |
| 20260505090054 | 71 | 184 | 2.0 | 7.0 | 0.00 | 0.00 | 0.00 | 47 | 1016.4 |
| 20260505085854 | 70 | 43 | 2.0 | 7.0 | 0.00 | 0.00 | 0.00 | 45 | 1016.5 |
| 20260505085654 | 71 | 24 | 3.0 | 7.0 | 0.00 | 0.00 | 0.00 | 43 | 1016.7 |
| 20260505085454 | 71 | 138 | 2.0 | 7.0 | 0.00 | 0.00 | 0.00 | 46 | 1016.5 |
| 20260505085253 | 70 | 344 | 2.0 | 4.0 | 0.00 | 0.00 | 0.00 | 46 | 1016.6 |
| 20260505085053 | 70 | 69 | 2.0 | 4.0 | 0.00 | 0.00 | 0.00 | 48 | 1016.6 |
| 20260505084854 | 70 | 218 | 1.0 | 4.0 | 0.00 | 0.00 | 0.00 | 47 | 1016.6 |
| 20260505084654 | 70 | 20 | 2.0 | 4.0 | 0.00 | 0.00 | 0.00 | 46 | 1016.6 |
| 20260505084455 | 70 | 59 | 2.0 | 4.0 | 0.00 | 0.00 | 0.00 | 48 | 1016.6 |
| 20260505084254 | 70 | 155 | 2.0 | 4.0 | 0.00 | 0.00 | 0.00 | 50 | 1016.6 |
| 20260505084054 | 70 | 282 | 0.0 | 4.0 | 0.00 | 0.00 | 0.00 | 50 | 1016.7 |
| 20260505083854 | 70 | 153 | 1.0 | 5.0 | 0.00 | 0.00 | 0.00 | 49 | 1016.6 |
| 20260505083653 | 69 | 98 | 1.0 | 5.0 | 0.00 | 0.00 | 0.00 | 48 | 1016.7 |
| 20260505083453 | 69 | 315 | 0.0 | 5.0 | 0.00 | 0.00 | 0.00 | 50 | 1016.7 |
| 20260505083255 | 70 | 19 | 2.0 | 5.0 | 0.00 | 0.00 | 0.00 | 48 | 1016.7 |
| 20260505083054 | 69 | 200 | 2.0 | 5.0 | 0.00 | 0.00 | 0.00 | 49 | 1016.7 |
| 20260505082854 | 69 | 149 | 2.0 | 3.0 | 0.00 | 0.00 | 0.00 | 49 | 1016.7 |
| 20260505082654 | 69 | 24 | 1.0 | 3.0 | 0.00 | 0.00 | 0.00 | 48 | 1016.7 |
| 20260505082453 | 69 | 21 | 2.0 | 4.0 | 0.00 | 0.00 | 0.00 | 48 | 1016.8 |
| 20260505082253 | 69 | 72 | 0.0 | 5.0 | 0.00 | 0.00 | 0.00 | 49 | 1016.8 |
| 20260505082053 | 69 | 148 | 2.0 | 5.0 | 0.00 | 0.00 | 0.00 | 48 | 1017.0 |
| 20260505081853 | 68 | 333 | 0.0 | 5.0 | 0.00 | 0.00 | 0.00 | 49 | 1016.8 |
| 20260505081653 | 68 | 338 | 0.0 | 5.0 | 0.00 | 0.00 | 0.00 | 49 | 1016.7 |
| 20260505081453 | 68 | 168 | 2.0 | 5.0 | 0.00 | 0.00 | 0.00 | 51 | 1016.6 |
| 20260505081253 | 67 | 51 | 2.0 | 4.0 | 0.00 | 0.00 | 0.00 | 51 | 1016.4 |
| 20260505081054 | 68 | 133 | 4.0 | 4.0 | 0.00 | 0.00 | 0.00 | 52 | 1016.7 |
| 20260505080853 | 67 | 171 | 3.0 | 4.0 | 0.00 | 0.00 | 0.00 | 52 | 1016.7 |
| 20260505080653 | 67 | 143 | 4.0 | 4.0 | 0.00 | 0.00 | 0.00 | 53 | 1017.0 |
| 20260505080453 | 67 | 348 | 1.0 | 3.0 | 0.00 | 0.00 | 0.00 | 53 | 1017.0 |
| 20260505080253 | 67 | 44 | 0.0 | 3.0 | 0.00 | 0.00 | 0.00 | 52 | 1016.7 |
| 20260505080053 | 68 | 4 | 1.0 | 3.0 | 0.00 | 0.00 | 0.00 | 51 | 1016.8 |
| 20260505075853 | 68 | 220 | 0.0 | 2.0 | 0.00 | 0.00 | 0.00 | 52 | 1017.0 |
| 20260505075653 | 68 | 186 | 0.0 | 3.0 | 0.00 | 0.00 | 0.00 | 50 | 1016.8 |
| 20260505075454 | 68 | 124 | 2.0 | 3.0 | 0.00 | 0.00 | 0.00 | 52 | 1017.0 |
| 20260505075254 | 68 | 157 | 1.0 | 3.0 | 0.00 | 0.00 | 0.00 | 53 | 1017.1 |
| 20260505075055 | 67 | 44 | 0.0 | 3.0 | 0.00 | 0.00 | 0.00 | 51 | 1017.0 |
| 20260505074854 | 67 | 40 | 2.0 | 3.0 | 0.00 | 0.00 | 0.00 | 52 | 1017.0 |
| 20260505074659 | 67 | 55 | 0.0 | 3.0 | 0.00 | 0.00 | 0.00 | 54 | 1017.1 |
| 20260505074453 | 67 | 182 | 1.0 | 3.0 | 0.00 | 0.00 | 0.00 | 57 | 1017.0 |
| 20260505074253 | 67 | 181 | 2.0 | 3.0 | 0.00 | 0.00 | 0.00 | 53 | 1016.8 |
| 20260505074053 | 67 | 133 | 1.0 | 3.0 | 0.00 | 0.00 | 0.00 | 55 | 1016.8 |
| 20260505073853 | 67 | 156 | 2.0 | 3.0 | 0.00 | 0.00 | 0.00 | 51 | 1017.0 |
| 20260505073653 | 67 | 4 | 0.0 | 3.0 | 0.00 | 0.00 | 0.00 | 51 | 1017.1 |
| 20260505073453 | 66 | 68 | 0.0 | 3.0 | 0.00 | 0.00 | 0.00 | 53 | 1017.1 |
| 20260505073253 | 65 | 29 | 2.0 | 3.0 | 0.00 | 0.00 | 0.00 | 53 | 1016.7 |
| 20260505073053 | 65 | 166 | 0.0 | 3.0 | 0.00 | 0.00 | 0.00 | 53 | 1017.0 |
| 20260505072854 | 65 | 315 | 0.0 | 3.0 | 0.00 | 0.00 | 0.00 | 54 | 1016.8 |
| 20260505072654 | 65 | 12 | 2.0 | 3.0 | 0.00 | 0.00 | 0.00 | 53 | 1016.8 |
| 20260505072453 | 65 | 204 | 0.0 | 3.0 | 0.00 | 0.00 | 0.00 | 53 | 1017.1 |
| 20260505072253 | 65 | 156 | 2.0 | 3.0 | 0.00 | 0.00 | 0.00 | 52 | 1017.2 |
| 20260505072054 | 64 | 112 | 2.0 | 3.0 | 0.00 | 0.00 | 0.00 | 53 | 1016.8 |
| 20260505071854 | 65 | 38 | 0.0 | 2.0 | 0.00 | 0.00 | 0.00 | 54 | 1017.0 |
| 20260505071653 | 65 | 179 | 1.0 | 2.0 | 0.00 | 0.00 | 0.00 | 54 | 1017.0 |
| 20260505071453 | 64 | 359 | 0.0 | 3.0 | 0.00 | 0.00 | 0.00 | 55 | 1017.1 |
| 20260505071254 | 63 | 136 | 1.0 | 4.0 | 0.00 | 0.00 | 0.00 | 55 | 1017.2 |
| 20260505071053 | 62 | 131 | 0.0 | 4.0 | 0.00 | 0.00 | 0.00 | 57 | 1017.0 |
| 20260505070854 | 61 | 225 | 2.0 | 4.0 | 0.00 | 0.00 | 0.00 | 59 | 1017.0 |
| 20260505070653 | 61 | 222 | 2.0 | 4.0 | 0.00 | 0.00 | 0.00 | 65 | 1017.1 |
| 20260505070453 | 61 | 219 | 4.0 | 4.0 | 0.00 | 0.00 | 0.00 | 61 | 1017.1 |
| 20260505070253 | 62 | 269 | 0.0 | 3.0 | 0.00 | 0.00 | 0.00 | 58 | 1017.0 |
| 20260505070054 | 62 | 174 | 2.0 | 3.0 | 0.00 | 0.00 | 0.00 | 59 | 1017.0 |
| 20260505065854 | 62 | 176 | 1.0 | 3.0 | 0.00 | 0.00 | 0.00 | 60 | 1017.2 |
| 20260505065654 | 63 | 156 | 2.0 | 2.0 | 0.00 | 0.00 | 0.00 | 56 | 1017.0 |
| 20260505065454 | 63 | 57 | 1.0 | 2.0 | 0.00 | 0.00 | 0.00 | 56 | 1017.3 |
| 20260505065253 | 63 | 149 | 1.0 | 2.0 | 0.00 | 0.00 | 0.00 | 57 | 1017.3 |
| 20260505065054 | 62 | 191 | 2.0 | 4.0 | 0.00 | 0.00 | 0.00 | 58 | 1017.2 |
| 20260505064853 | 61 | 224 | 0.0 | 4.0 | 0.00 | 0.00 | 0.00 | 60 | 1017.2 |
| 20260505064653 | 62 | 188 | 1.0 | 4.0 | 0.00 | 0.00 | 0.00 | 61 | 1017.0 |
| 20260505064453 | 61 | 152 | 0.0 | 4.0 | 0.00 | 0.00 | 0.00 | 58 | 1016.8 |
| 20260505064253 | 61 | 36 | 2.0 | 4.0 | 0.00 | 0.00 | 0.00 | 59 | 1017.1 |
| 20260505064053 | 61 | 152 | 2.0 | 2.0 | 0.00 | 0.00 | 0.00 | 60 | 1017.0 |
| 20260505063858 | 60 | 226 | 0.0 | 3.0 | 0.00 | 0.00 | 0.00 | 62 | 1017.1 |
| 20260505063654 | 60 | 170 | 0.0 | 3.0 | 0.00 | 0.00 | 0.00 | 62 | 1017.3 |
| 20260505063453 | 60 | 135 | 0.0 | 3.0 | 0.00 | 0.00 | 0.00 | 61 | 1017.2 |
| 20260505063253 | 60 | 354 | 0.0 | 3.0 | 0.00 | 0.00 | 0.00 | 61 | 1017.1 |
| 20260505063053 | 59 | 86 | 1.0 | 3.0 | 0.00 | 0.00 | 0.00 | 62 | 1017.0 |
| 20260505062853 | 59 | 92 | 1.0 | 3.0 | 0.00 | 0.00 | 0.00 | 62 | 1017.2 |
| 20260505062654 | 59 | 143 | 2.0 | 3.0 | 0.00 | 0.00 | 0.00 | 61 | 1017.0 |
| 20260505062453 | 58 | 149 | 2.0 | 3.0 | 0.00 | 0.00 | 0.00 | 62 | 1017.1 |
| 20260505062253 | 58 | 186 | 1.0 | 3.0 | 0.00 | 0.00 | 0.00 | 66 | 1017.1 |
| 20260505062053 | 58 | 163 | 1.0 | 3.0 | 0.00 | 0.00 | 0.00 | 64 | 1017.2 |
| 20260505061854 | 58 | 151 | 0.0 | 3.0 | 0.00 | 0.00 | 0.00 | 64 | 1017.2 |
| 20260505061654 | 60 | 180 | 1.0 | 2.0 | 0.00 | 0.00 | 0.00 | 62 | 1017.1 |
| 20260505061454 | 60 | 142 | 0.0 | 2.0 | 0.00 | 0.00 | 0.00 | 61 | 1017.1 |
| 20260505061255 | 58 | 84 | 0.0 | 2.0 | 0.00 | 0.00 | 0.00 | 64 | 1017.0 |
| 20260505061054 | 58 | 135 | 0.0 | 3.0 | 0.00 | 0.00 | 0.00 | 64 | 1017.1 |
| 20260505060853 | 58 | 160 | 0.0 | 3.0 | 0.00 | 0.00 | 0.00 | 63 | 1017.0 |
| 20260505060653 | 57 | 144 | 1.0 | 3.0 | 0.00 | 0.00 | 0.00 | 67 | 1017.1 |
| 20260505060453 | 57 | 141 | 1.0 | 3.0 | 0.00 | 0.00 | 0.00 | 66 | 1017.2 |
| 20260505060253 | 57 | 88 | 2.0 | 3.0 | 0.00 | 0.00 | 0.00 | 67 | 1017.2 |
| 20260505060053 | 58 | 135 | 2.0 | 3.0 | 0.00 | 0.00 | 0.00 | 67 | 1017.0 |
| 20260505055853 | 57 | 74 | 0.0 | 3.0 | 0.00 | 0.00 | 0.00 | 69 | 1017.0 |
| 20260505055653 | 56 | 142 | 0.0 | 3.0 | 0.00 | 0.00 | 0.00 | 71 | 1017.0 |
| 20260505055453 | 55 | 114 | 1.0 | 3.0 | 0.00 | 0.00 | 0.00 | 70 | 1017.0 |
| 20260505055253 | 55 | 185 | 0.0 | 3.0 | 0.00 | 0.00 | 0.00 | 74 | 1017.0 |
| 20260505055055 | 55 | 157 | 1.0 | 2.0 | 0.00 | 0.00 | 0.00 | 73 | 1016.7 |
| 20260505054853 | 55 | 159 | 0.0 | 2.0 | 0.00 | 0.00 | 0.00 | 73 | 1017.0 |
| 20260505054653 | 54 | 142 | 0.0 | 2.0 | 0.00 | 0.00 | 0.00 | 74 | 1017.0 |
| 20260505054454 | 54 | 125 | 1.0 | 2.0 | 0.00 | 0.00 | 0.00 | 75 | 1016.8 |
| 20260505054253 | 54 | 258 | 1.0 | 2.0 | 0.00 | 0.00 | 0.00 | 74 | 1017.1 |
| 20260505054053 | 54 | 301 | 0.0 | 2.0 | 0.00 | 0.00 | 0.00 | 73 | 1017.0 |
| 20260505053854 | 55 | 202 | 1.0 | 2.0 | 0.00 | 0.00 | 0.00 | 75 | 1017.0 |
| 20260505053654 | 54 | 129 | 0.0 | 3.0 | 0.00 | 0.00 | 0.00 | 77 | 1017.1 |
| 20260505053454 | 52 | 114 | 0.0 | 3.0 | 0.00 | 0.00 | 0.00 | 79 | 1016.7 |
| 20260505053254 | 52 | 164 | 1.0 | 3.0 | 0.00 | 0.00 | 0.00 | 80 | 1017.1 |
| 20260505053054 | 51 | 123 | 0.0 | 3.0 | 0.00 | 0.00 | 0.00 | 81 | 1016.8 |
| 20260505052853 | 51 | 154 | 2.0 | 3.0 | 0.00 | 0.00 | 0.00 | 80 | 1017.1 |
| 20260505052654 | 51 | 66 | 0.0 | 3.0 | 0.00 | 0.00 | 0.00 | 82 | 1016.8 |
| 20260505052453 | 50 | 197 | 1.0 | 3.0 | 0.00 | 0.00 | 0.00 | 83 | 1016.8 |
| 20260505052254 | 51 | 197 | 2.0 | 2.0 | 0.00 | 0.00 | 0.00 | 83 | 1016.8 |
| 20260505052053 | 51 | 159 | 1.0 | 2.0 | 0.00 | 0.00 | 0.00 | 83 | 1016.7 |
| 20260505051853 | 50 | 129 | 1.0 | 2.0 | 0.00 | 0.00 | 0.00 | 84 | 1017.0 |
| 20260505051653 | 49 | 115 | 1.0 | 2.0 | 0.00 | 0.00 | 0.00 | 85 | 1016.7 |
| 20260505051453 | 49 | 167 | 2.0 | 2.0 | 0.00 | 0.00 | 0.00 | 85 | 1016.8 |
| 20260505051253 | 49 | 246 | 0.0 | 2.0 | 0.00 | 0.00 | 0.00 | 85 | 1017.1 |
| 20260505051053 | 49 | 277 | 0.0 | 2.0 | 0.00 | 0.00 | 0.00 | 85 | 1016.8 |
| 20260505050853 | 48 | 254 | 0.0 | 2.0 | 0.00 | 0.00 | 0.00 | 85 | 1016.7 |
| 20260505050653 | 49 | 150 | 2.0 | 2.0 | 0.00 | 0.00 | 0.00 | 85 | 1017.0 |
| 20260505050453 | 48 | 186 | 0.0 | 3.0 | 0.00 | 0.00 | 0.00 | 85 | 1016.7 |
| 20260505050254 | 48 | 234 | 0.0 | 3.0 | 0.00 | 0.00 | 0.00 | 85 | 1016.8 |
| 20260505041654 | 41 | 30 | 0.0 | 3.0 | 0.00 | 0.00 | 0.00 | 95 | 1016.7 |
| 20260505041453 | 41 | 160 | 0.0 | 4.0 | 0.00 | 0.00 | 0.00 | 96 | 1016.6 |
| 20260505041254 | 41 | 119 | 0.0 | 4.0 | 0.00 | 0.00 | 0.00 | 96 | 1016.7 |
| 20260505041054 | 40 | 119 | 0.0 | 4.0 | 0.00 | 0.00 | 0.00 | 96 | 1017.0 |
| 20260505040853 | 40 | 169 | 2.0 | 5.0 | 0.00 | 0.00 | 0.00 | 96 | 1017.0 |
| 20260505040654 | 40 | 139 | 1.0 | 6.0 | 0.00 | 0.00 | 0.00 | 97 | 1016.6 |
| 20260505040453 | 40 | 166 | 2.0 | 6.0 | 0.00 | 0.00 | 0.00 | 97 | 1016.7 |
| 20260505040254 | 39 | 158 | 2.0 | 6.0 | 0.00 | 0.00 | 0.00 | 97 | 1016.7 |
| 20260505040053 | 39 | 166 | 2.0 | 6.0 | 0.00 | 0.00 | 0.00 | 97 | 1016.7 |
| 20260505035854 | 39 | 130 | 4.0 | 6.0 | 0.00 | 0.00 | 0.00 | 97 | 1016.6 |
| 20260505035653 | 39 | 172 | 2.0 | 4.0 | 0.00 | 0.00 | 0.00 | 97 | 1016.5 |
| 20260505035453 | 39 | 197 | 2.0 | 3.0 | 0.00 | 0.00 | 0.00 | 97 | 1016.6 |
| 20260505035253 | 39 | 126 | 0.0 | 2.0 | 0.00 | 0.00 | 0.00 | 97 | 1016.6 |
| 20260505035053 | 39 | 138 | 1.0 | 2.0 | 0.00 | 0.00 | 0.00 | 97 | 1016.6 |
| 20260505034853 | 40 | 144 | 1.0 | 2.0 | 0.00 | 0.00 | 0.00 | 97 | 1016.5 |
| 20260505034653 | 40 | 135 | 1.0 | 2.0 | 0.00 | 0.00 | 0.00 | 98 | 1016.8 |
| 20260505034453 | 40 | 204 | 0.0 | 2.0 | 0.00 | 0.00 | 0.00 | 98 | 1016.5 |
| 20260505034253 | 40 | 89 | 0.0 | 2.0 | 0.00 | 0.00 | 0.00 | 98 | 1016.6 |
| 20260505034054 | 39 | 106 | 0.0 | 2.0 | 0.00 | 0.00 | 0.00 | 98 | 1016.6 |
| 20260505033855 | 39 | 89 | 0.0 | 3.0 | 0.00 | 0.00 | 0.00 | 98 | 1016.7 |
| 20260505033653 | 39 | 2 | 1.0 | 4.0 | 0.00 | 0.00 | 0.00 | 98 | 1016.5 |
| 20260505033453 | 39 | 129 | 0.0 | 6.0 | 0.00 | 0.00 | 0.00 | 98 | 1016.5 |
| 20260505033253 | 39 | 108 | 1.0 | 6.0 | 0.00 | 0.00 | 0.00 | 98 | 1016.6 |
| 20260505033057 | 39 | 214 | 2.0 | 6.0 | 0.00 | 0.00 | 0.00 | 98 | 1016.5 |
| 20260505032853 | 39 | 211 | 2.0 | 6.0 | 0.00 | 0.00 | 0.00 | 98 | 1016.6 |
| 20260505032653 | 39 | 154 | 1.0 | 6.0 | 0.00 | 0.00 | 0.00 | 98 | 1016.6 |
| 20260505032454 | 39 | 142 | 4.0 | 6.0 | 0.00 | 0.00 | 0.00 | 98 | 1016.3 |
| 20260505032254 | 38 | 183 | 4.0 | 5.0 | 0.00 | 0.00 | 0.00 | 98 | 1016.4 |
| 20260505032054 | 38 | 174 | 3.0 | 4.0 | 0.00 | 0.00 | 0.00 | 98 | 1016.8 |
| 20260505031854 | 38 | 181 | 1.0 | 3.0 | 0.00 | 0.00 | 0.00 | 98 | 1016.4 |
| 20260505031653 | 38 | 166 | 2.0 | 3.0 | 0.00 | 0.00 | 0.00 | 98 | 1016.6 |
| 20260505031454 | 38 | 169 | 2.0 | 3.0 | 0.00 | 0.00 | 0.00 | 98 | 1016.6 |
| 20260505031254 | 38 | 171 | 1.0 | 3.0 | 0.00 | 0.00 | 0.00 | 97 | 1016.6 |
| 20260505031053 | 38 | 182 | 0.0 | 3.0 | 0.00 | 0.00 | 0.00 | 97 | 1016.6 |
| 20260505030853 | 38 | 106 | 2.0 | 3.0 | 0.00 | 0.00 | 0.00 | 97 | 1016.6 |
| 20260505030655 | 38 | 180 | 2.0 | 3.0 | 0.00 | 0.00 | 0.00 | 97 | 1016.4 |
| 20260505030453 | 38 | 165 | 1.0 | 3.0 | 0.00 | 0.00 | 0.00 | 97 | 1016.5 |
| 20260505030256 | 38 | 176 | 2.0 | 3.0 | 0.00 | 0.00 | 0.00 | 97 | 1016.6 |
| 20260505030053 | 38 | 192 | 2.0 | 2.0 | 0.00 | 0.00 | 0.00 | 97 | 1016.7 |
| 20260505025853 | 38 | 354 | 0.0 | 2.0 | 0.00 | 0.00 | 0.00 | 97 | 1016.6 |
| 20260505025654 | 38 | 48 | 0.0 | 2.0 | 0.00 | 0.00 | 0.00 | 97 | 1016.6 |
| 20260505025454 | 38 | 349 | 0.0 | 2.0 | 0.00 | 0.00 | 0.00 | 97 | 1016.4 |
| 20260505025253 | 38 | 56 | 0.0 | 2.0 | 0.00 | 0.00 | 0.00 | 97 | 1016.6 |
| 20260505025053 | 38 | 82 | 0.0 | 2.0 | 0.00 | 0.00 | 0.00 | 97 | 1016.4 |
| 20260505024853 | 38 | 37 | 0.0 | 2.0 | 0.00 | 0.00 | 0.00 | 97 | 1016.4 |
| 20260505024654 | 38 | 22 | 1.0 | 2.0 | 0.00 | 0.00 | 0.00 | 97 | 1016.7 |
| 20260505024453 | 38 | 342 | 1.0 | 2.0 | 0.00 | 0.00 | 0.00 | 97 | 1016.5 |
| 20260505024253 | 38 | 37 | 0.0 | 2.0 | 0.00 | 0.00 | 0.00 | 97 | 1016.5 |
| 20260505024054 | 38 | 33 | 2.0 | 2.0 | 0.00 | 0.00 | 0.00 | 97 | 1016.5 |
| 20260505023854 | 38 | 44 | 0.0 | 2.0 | 0.00 | 0.00 | 0.00 | 97 | 1016.5 |
| 20260505023652 | 38 | 17 | 0.0 | 2.0 | 0.00 | 0.00 | 0.00 | 97 | 1016.7 |
| 20260505023453 | 38 | 84 | 0.0 | 2.0 | 0.00 | 0.00 | 0.00 | 97 | 1016.7 |
| 20260505023253 | 38 | 336 | 0.0 | 2.0 | 0.00 | 0.00 | 0.00 | 97 | 1016.8 |
| 20260505023054 | 38 | 16 | 0.0 | 2.0 | 0.00 | 0.00 | 0.00 | 97 | 1016.5 |
| 20260505022853 | 38 | 16 | 1.0 | 2.0 | 0.00 | 0.00 | 0.00 | 97 | 1016.5 |
| 20260505022653 | 38 | 100 | 2.0 | 2.0 | 0.00 | 0.00 | 0.00 | 97 | 1016.4 |
| 20260505022454 | 38 | 140 | 1.0 | 2.0 | 0.00 | 0.00 | 0.00 | 97 | 1016.7 |
| 20260505022254 | 38 | 13 | 0.0 | 2.0 | 0.00 | 0.00 | 0.00 | 97 | 1016.4 |
| 20260505022054 | 38 | 274 | 1.0 | 2.0 | 0.00 | 0.00 | 0.00 | 97 | 1016.6 |
| 20260505021854 | 38 | 207 | 0.0 | 2.0 | 0.00 | 0.00 | 0.00 | 97 | 1016.4 |
| 20260505021654 | 38 | 322 | 1.0 | 2.0 | 0.00 | 0.00 | 0.00 | 97 | 1016.6 |
| 20260505021454 | 38 | 282 | 0.0 | 2.0 | 0.00 | 0.00 | 0.00 | 97 | 1016.6 |
| 20260505021253 | 38 | 336 | 0.0 | 2.0 | 0.00 | 0.00 | 0.00 | 97 | 1016.5 |
| 20260505021053 | 38 | 18 | 0.0 | 2.0 | 0.00 | 0.00 | 0.00 | 97 | 1016.7 |
| 20260505020853 | 38 | 54 | 1.0 | 2.0 | 0.00 | 0.00 | 0.00 | 97 | 1016.4 |
| 20260505020653 | 38 | 37 | 0.0 | 2.0 | 0.00 | 0.00 | 0.00 | 96 | 1016.5 |
| 20260505020453 | 38 | 329 | 2.0 | 2.0 | 0.00 | 0.00 | 0.00 | 96 | 1016.4 |
| 20260505020253 | 38 | 357 | 0.0 | 2.0 | 0.00 | 0.00 | 0.00 | 96 | 1016.5 |
| 20260505020053 | 38 | 331 | 1.0 | 2.0 | 0.00 | 0.00 | 0.00 | 96 | 1016.6 |
| 20260505015853 | 38 | 347 | 0.0 | 2.0 | 0.00 | 0.00 | 0.00 | 96 | 1016.5 |
| 20260505015654 | 38 | 133 | 0.0 | 2.0 | 0.00 | 0.00 | 0.00 | 96 | 1016.6 |
| 20260505015453 | 38 | 34 | 1.0 | 2.0 | 0.00 | 0.00 | 0.00 | 96 | 1016.6 |
| 20260505015253 | 38 | 22 | 1.0 | 2.0 | 0.00 | 0.00 | 0.00 | 96 | 1016.4 |
| 20260505015054 | 38 | 130 | 0.0 | 2.0 | 0.00 | 0.00 | 0.00 | 96 | 1016.4 |
| 20260505014853 | 39 | 36 | 1.0 | 2.0 | 0.00 | 0.00 | 0.00 | 96 | 1016.6 |
| 20260505014654 | 39 | 13 | 1.0 | 3.0 | 0.00 | 0.00 | 0.00 | 96 | 1016.4 |
| 20260505014454 | 39 | 129 | 0.0 | 3.0 | 0.00 | 0.00 | 0.00 | 96 | 1016.5 |
| 20260505014254 | 39 | 166 | 0.0 | 3.0 | 0.00 | 0.00 | 0.00 | 96 | 1016.6 |
| 20260505014053 | 39 | 51 | 0.0 | 3.0 | 0.00 | 0.00 | 0.00 | 96 | 1016.4 |
| 20260505013853 | 39 | 22 | 0.0 | 3.0 | 0.00 | 0.00 | 0.00 | 96 | 1016.6 |
| 20260505013653 | 39 | 63 | 2.0 | 2.0 | 0.00 | 0.00 | 0.00 | 96 | 1016.6 |
| 20260505013454 | 39 | 13 | 0.0 | 2.0 | 0.00 | 0.00 | 0.00 | 96 | 1016.4 |
| 20260505013255 | 39 | 8 | 2.0 | 2.0 | 0.00 | 0.00 | 0.00 | 96 | 1016.6 |
| 20260505013053 | 40 | 3 | 0.0 | 2.0 | 0.00 | 0.00 | 0.00 | 96 | 1016.4 |
| 20260505012853 | 40 | 250 | 0.0 | 3.0 | 0.00 | 0.00 | 0.00 | 96 | 1016.2 |
| 20260505012654 | 40 | 287 | 2.0 | 3.0 | 0.00 | 0.00 | 0.00 | 96 | 1016.7 |
| 20260505012453 | 40 | 38 | 0.0 | 3.0 | 0.00 | 0.00 | 0.00 | 96 | 1016.4 |
| 20260505012253 | 40 | 21 | 1.0 | 3.0 | 0.00 | 0.00 | 0.00 | 96 | 1016.4 |
| 20260505012053 | 40 | 57 | 2.0 | 3.0 | 0.00 | 0.00 | 0.00 | 96 | 1016.3 |
| 20260505011858 | 40 | 52 | 2.0 | 3.0 | 0.00 | 0.00 | 0.00 | 96 | 1016.3 |
| 20260505011653 | 40 | 32 | 0.0 | 2.0 | 0.00 | 0.00 | 0.00 | 96 | 1016.5 |
| 20260505011454 | 40 | 0 | 0.0 | 2.0 | 0.00 | 0.00 | 0.00 | 96 | 1016.4 |
| 20260505011254 | 40 | 23 | 0.0 | 2.0 | 0.00 | 0.00 | 0.00 | 96 | 1016.4 |
| 20260505011053 | 40 | 21 | 0.0 | 2.0 | 0.00 | 0.00 | 0.00 | 96 | 1016.3 |
| 20260505010853 | 40 | 83 | 1.0 | 2.0 | 0.00 | 0.00 | 0.00 | 95 | 1016.3 |
| 20260505010653 | 40 | 349 | 1.0 | 2.0 | 0.00 | 0.00 | 0.00 | 95 | 1016.4 |
| 20260505010453 | 40 | 150 | 0.0 | 2.0 | 0.00 | 0.00 | 0.00 | 95 | 1016.1 |
| 20260505010258 | 40 | 18 | 1.0 | 2.0 | 0.00 | 0.00 | 0.00 | 95 | 1016.3 |
| 20260505010053 | 40 | 57 | 2.0 | 2.0 | 0.00 | 0.00 | 0.00 | 95 | 1016.2 |
| 20260505005854 | 40 | 11 | 0.0 | 2.0 | 0.00 | 0.00 | 0.00 | 95 | 1016.2 |
| 20260505005654 | 41 | 37 | 0.0 | 2.0 | 0.00 | 0.00 | 0.00 | 95 | 1016.2 |
| 20260505005454 | 41 | 342 | 0.0 | 2.0 | 0.00 | 0.00 | 0.00 | 95 | 1016.2 |
| 20260505005253 | 41 | 6 | 0.0 | 2.0 | 0.00 | 0.00 | 0.00 | 95 | 1016.3 |